Theta_e
345 347 354 356 356 355 355 354 355 357 356 356 356 357 356 356 356 357 355 354 351 349 349 348 350 351 352 353 355 354 354 350
346 347 349 355 355 355 355 354 354 356 356 356 357 355 355 355 354 355 353 352 351 350 350 350 352 354 354 354 354 354 354 349
346 346 348 354 355 356 355 355 355 356 356 356 357 355 355 355 355 354 354 353 352 352 352 352 355 354 354 354 354 355 354 353
347 344 344 347 350 354 355 355 354 355 356 357 356 356 355 355 355 355 355 355 355 356 355 355 355 354 354 355 355 354 354 354
345 344 340 341 344 346 347 354 354 354 355 356 356 355 356 355 355 355 356 355 355 357 356 355 355 354 354 353 354 355 355 355
345 342 340 340 337 341 343 349 354 355 354 354 354 355 353 347 345 350 353 356 356 356 356 356 356 355 355 355 355 355 357 348
328 331 331 337 340 341 345 343 343 345 345 347 347 346 347 343 342 344 350 355 357 356 357 357 357 358 357 347 342 346 347 346
321 322 323 328 334 338 339 342 341 342 343 343 344 343 341 343 341 341 342 343 346 351 350 350 346 344 340 341 337 342 344 345
317 319 320 322 323 329 337 341 340 338 339 339 339 340 339 340 341 338 339 338 338 342 343 343 340 339 337 338 336 342 345 344
315 315 316 317 319 322 324 327 338 341 338 336 337 337 339 339 338 340 336 337 336 335 335 335 333 333 333 337 339 342 344 338
314 313 315 315 315 318 319 323 335 337 336 331 326 327 329 331 334 341 337 337 340 342 341 338 336 332 328 329 331 334 337 340
312 313 312 315 315 315 317 321 325 326 323 321 320 321 324 325 328 330 330 328 331 334 333 334 334 338 339 341 338 335 335 337
311 311 312 314 313 313 314 317 320 320 319 318 317 319 321 320 320 320 321 318 323 324 324 326 327 328 329 336 332 339 338 335
311 311 310 312 311 312 312 315 316 316 317 315 317 318 319 319 318 316 316 316 317 318 317 318 321 323 324 325 326 332 341 340
311 311 310 310 310 311 312 313 315 314 315 313 316 316 315 318 318 316 315 315 315 315 316 317 316 318 323 318 324 332 328 334
310 309 309 308 308 309 310 310 312 310 310 311 313 314 316 315 313 312 312 312 313 313 314 313 313 313 316 316 320 318 325 334
308 307 307 307 306 307 308 308 310 310 310 311 309 309 312 310 310 310 308 308 309 308 308 309 310 309 313 315 312 312 319 324
306 306 306 308 308 306 307 307 306 306 306 306 305 306 309 308 308 307 306 305 305 304 303 304 304 304 304 308 308 313 310 310
305 306 306 306 307 307 306 304 302 302 301 301 301 303 305 305 305 305 304 303 302 302 300 301 302 302 301 300 304 306 308 311
Wind_Speed
8 7 13 15 14 15 15 14 13 11 11 10 9 9 8 7 6 4 4 4 3 1 1 1 3 4 4 4 4 4 5 2
8 6 8 14 14 14 14 13 12 10 9 10 8 7 5 4 2 2 2 1 1 2 3 4 6 6 6 3 3 4 3 2
12 7 7 13 13 12 12 12 10 9 7 8 8 7 6 5 5 5 5 5 5 7 7 7 8 9 8 4 4 0 3 6
10 7 6 6 10 12 12 10 9 8 7 8 7 8 7 7 7 7 7 9 10 9 10 9 9 11 10 5 6 3 6 7
6 5 5 5 6 6 7 13 12 11 10 9 9 9 9 9 9 8 10 11 12 12 12 12 11 12 11 7 11 3 7 9
5 5 3 3 1 2 2 7 12 14 12 11 9 9 7 4 5 7 10 13 14 14 14 13 12 12 11 11 11 2 10 4
12 9 8 3 2 4 4 3 3 4 4 5 6 6 5 5 4 7 10 14 15 16 14 13 12 12 10 5 2 4 4 5
8 9 10 9 6 3 2 3 1 3 3 3 5 5 5 4 4 4 4 3 3 7 5 6 5 4 5 5 2 4 5 6
10 11 9 7 6 7 5 3 4 3 4 4 5 6 4 3 4 3 2 3 3 3 5 4 4 6 6 7 5 7 6 4
8 7 7 8 7 6 5 4 4 5 5 6 5 8 5 4 4 4 4 3 3 3 3 5 5 5 5 7 5 6 8 6
8 9 7 8 8 5 5 5 5 6 7 8 8 7 9 7 7 5 6 7 7 7 6 5 5 4 4 4 6 6 8 7
6 7 10 9 9 9 7 6 7 7 7 7 6 9 11 10 8 8 7 7 8 8 9 8 9 8 8 8 8 9 9 6
7 10 9 9 9 8 7 6 6 6 7 7 7 7 10 11 10 9 8 9 8 7 7 8 8 9 8 7 8 8 7 7
7 7 9 9 9 7 7 5 6 7 8 6 7 7 7 10 11 10 8 8 8 7 8 7 7 7 7 9 10 8 6 8
7 7 7 7 9 7 5 4 6 7 7 8 8 7 10 9 12 8 8 8 7 7 8 8 9 8 4 9 9 8 8 7
7 8 7 8 8 6 4 3 5 6 5 7 8 13 13 12 13 12 8 10 9 9 9 10 8 9 7 11 5 8 5 7
6 6 7 7 7 6 4 3 3 3 4 3 6 11 12 13 13 11 11 10 11 8 10 11 12 8 4 8 4 5 6 5
6 5 6 5 6 6 7 4 4 4 5 7 7 8 10 13 12 12 12 10 9 8 8 8 9 10 7 5 9 4 5 5
5 5 5 6 6 7 7 6 7 6 7 4 4 6 7 12 12 12 11 10 9 8 9 9 8 7 6 7 6 9 7 7
Wind_Direction
124 124 133 135 131 132 128 126 124 122 118 112 107 104 104 106 107 113 120 119 113 80 6 18 310 292 295 3 38 14 357 53
129 132 132 137 136 133 132 130 129 129 131 136 120 114 122 124 136 166 206 216 259 270 278 293 286 283 295 325 31 23 340 169
137 140 144 141 138 137 138 135 131 129 135 130 133 151 168 180 198 221 246 250 245 254 254 259 271 279 287 313 357 315 262 273
136 142 143 139 145 146 144 142 143 147 158 155 168 176 193 210 222 232 249 257 259 256 262 261 267 279 283 319 271 248 249 253
142 144 143 148 152 155 165 163 169 175 184 183 195 199 205 226 235 246 252 255 258 259 261 263 265 270 283 279 277 198 240 252
101 71 84 133 172 205 186 185 183 191 194 201 211 224 234 240 249 259 260 263 263 261 258 263 271 276 280 278 270 293 217 238
55 59 34 345 200 218 199 223 258 230 212 209 213 218 229 236 236 253 253 253 257 262 274 269 273 277 282 276 294 259 229 239
34 50 25 25 12 11 314 170 243 266 274 253 249 241 237 243 237 242 269 288 279 265 257 269 281 267 264 257 196 264 224 217
38 36 31 21 16 17 20 18 262 232 226 233 236 247 245 244 267 247 229 276 283 257 272 261 275 285 274 266 190 232 241 210
44 33 26 23 25 17 18 358 5 16 38 42 24 30 353 324 316 328 343 15 4 336 311 312 300 293 286 288 255 225 236 218
32 22 16 27 16 13 24 16 47 62 42 48 42 31 28 20 9 9 35 29 13 11 11 8 2 336 269 264 286 256 229 233
32 26 24 24 8 17 20 27 46 52 64 59 46 34 35 30 22 25 32 28 11 7 9 10 6 358 355 351 349 329 309 271
37 25 17 16 17 15 16 29 56 49 58 48 44 44 40 40 32 38 35 19 6 16 19 12 7 355 349 355 340 329 322 311
42 29 17 9 12 8 14 25 45 57 63 38 42 37 23 40 43 50 37 24 13 17 23 14 12 4 340 350 328 316 327 317
41 35 20 12 12 357 359 29 48 55 58 49 46 34 24 43 42 47 41 28 19 25 22 19 14 4 2 345 316 318 309 292
38 34 23 20 3 10 5 18 43 58 47 47 43 39 51 44 43 36 36 30 20 31 22 16 3 7 4 357 333 328 297 277
63 38 31 21 19 15 12 1 48 78 41 46 45 47 54 45 40 41 35 29 26 21 21 19 13 5 357 359 344 284 327 317
75 57 47 23 16 26 22 25 29 42 40 42 32 45 48 47 44 40 36 32 25 27 20 13 13 16 4 357 343 351 342 323
112 88 67 53 36 39 32 48 59 67 66 36 38 49 51 47 44 41 37 32 27 26 25 15 12 13 6 17 340 7 348 315